CW8593 Weather Reports


Display with metric or nautical units.
time (UTC)temp
F
wind
direction
speed
MPH
gust
MPH
rain 1hr
in
rain 24hr
in
rain mn
in
humidity
%
barometer
mb
20150730201201 74 86 2.0 5.0 0.00 0.01 0.01 77 1012.1
20150730195701 74 86 0.0 5.0 0.00 0.01 0.01 77 1012.1
20150730195200 74 88 2.0 5.0 0.00 0.01 0.01 76 1012.1
20150730194701 74 101 2.0 8.0 0.00 0.01 0.01 76 1012.1
20150730192201 75 139 1.0 3.0 0.00 0.01 0.01 71 1012.1
20150730190200 75 139 0.0 1.0 0.00 0.01 0.01 72 1011.3
20150730185700 75 139 0.0 3.0 0.00 0.01 0.01 72 1011.3
20150730184201 75 139 0.0 1.0 0.00 0.01 0.01 72 1011.3
20150730183701 75 139 0.0 1.0 0.00 0.01 0.01 72 1011.3
20150730183202 75 139 1.0 3.0 0.00 0.01 0.01 72 1011.3
20150730182701 75 139 2.0 3.0 0.00 0.01 0.01 73 1011.3
20150730181701 74 138 1.0 6.0 0.00 0.01 0.01 73 1011.3
20150730181200 74 140 3.0 5.0 0.00 0.01 0.01 74 1011.3
20150730180700 74 141 2.0 5.0 0.00 0.01 0.01 74 1011.3
20150730180200 74 126 2.0 7.0 0.00 0.01 0.01 74 1011.3
20150730175200 74 127 5.0 8.0 0.00 0.01 0.01 73 1011.3
20150730174701 74 126 3.0 6.0 0.00 0.01 0.01 73 1011.3
20150730174201 74 114 5.0 7.0 0.00 0.01 0.01 72 1011.3
20150730172200 75 100 1.0 7.0 0.00 0.01 0.01 71 1011.3
20150730171700 75 77 4.0 8.0 0.00 0.01 0.01 71 1011.3
20150730170700 75 145 2.0 7.0 0.00 0.01 0.01 71 1011.3
20150730170200 75 131 5.0 9.0 0.00 0.01 0.01 71 1011.3
20150730165200 75 135 5.0 9.0 0.00 0.01 0.01 71 1011.3
20150730164700 75 131 5.0 7.0 0.00 0.01 0.01 71 1011.3
20150730164200 75 93 5.0 8.0 0.00 0.01 0.01 72 1011.3
20150730162700 75 131 7.0 12.0 0.00 0.01 0.01 71 1011.3
20150730162201 76 116 4.0 9.0 0.00 0.01 0.01 71 1011.3
20150730160201 75 132 9.0 15.0 0.00 0.01 0.01 69 1011.3
20150730155700 76 125 5.0 12.0 0.00 0.01 0.01 68 1011.3
20150730155202 76 133 9.0 15.0 0.00 0.01 0.01 67 1011.3
20150730154700 76 90 7.0 12.0 0.00 0.01 0.01 67 1011.3
20150730154200 76 95 9.0 15.0 0.00 0.01 0.01 67 1011.3
20150730153701 76 68 8.0 15.0 0.00 0.01 0.01 67 1011.3
20150730153200 77 99 7.0 15.0 0.00 0.01 0.01 67 1011.3
20150730152700 77 86 8.0 15.0 0.00 0.01 0.01 67 1011.3
20150730152200 77 87 7.0 13.0 0.00 0.01 0.01 67 1011.3
20150730151700 77 97 7.0 16.0 0.00 0.01 0.01 68 1011.3
20150730151200 77 92 8.0 14.0 0.00 0.01 0.01 68 1011.3
20150730145201 77 90 3.0 8.0 0.00 0.01 0.01 69 1011.3
20150730144700 77 103 5.0 12.0 0.00 0.01 0.01 70 1011.3
20150730144200 77 112 4.0 10.0 0.00 0.01 0.01 70 1011.3
20150730143201 76 81 3.0 10.0 0.00 0.01 0.01 71 1011.3
20150730142200 76 90 5.0 10.0 0.00 0.01 0.01 72 1011.3
20150730141201 76 130 7.0 12.0 0.00 0.01 0.01 72 1011.3
20150730140201 76 154 7.0 14.0 0.00 0.01 0.01 71 1011.3
20150730135201 76 146 5.0 9.0 0.00 0.01 0.01 70 1011.3
20150730134701 76 114 4.0 9.0 0.00 0.01 0.01 70 1011.3
20150730134201 76 95 5.0 12.0 0.00 0.01 0.01 71 1011.3
20150730133200 76 94 9.0 15.0 0.00 0.01 0.01 71 1011.3
20150730132701 76 101 7.0 12.0 0.00 0.01 0.01 71 1011.3
20150730131700 76 97 7.0 13.0 0.00 0.01 0.01 71 1011.8
20150730131201 76 108 6.0 12.0 0.00 0.01 0.01 70 1011.8
20150730130701 76 90 7.0 15.0 0.00 0.01 0.01 71 1011.8
20150730125200 75 55 5.0 8.0 0.00 0.01 0.01 73 1011.8
20150730124701 75 78 5.0 14.0 0.00 0.01 0.01 73 1011.8
20150730124201 75 92 9.0 15.0 0.00 0.01 0.01 72 1011.8
20150730123701 76 79 6.0 14.0 0.00 0.01 0.01 71 1011.8
20150730123200 76 82 10.0 16.0 0.00 0.01 0.01 71 1011.8
20150730122700 76 123 6.0 12.0 0.00 0.01 0.01 71 1011.8
20150730122200 76 94 5.0 10.0 0.00 0.01 0.01 71 1011.8
20150730121700 76 126 5.0 9.0 0.00 0.01 0.01 71 1011.8
20150730121200 76 102 5.0 8.0 0.00 0.01 0.01 71 1011.8
20150730120700 76 138 5.0 9.0 0.00 0.01 0.01 72 1011.8
20150730115701 76 130 3.0 7.0 0.00 0.01 0.01 72 1011.8
20150730115200 76 153 5.0 8.0 0.00 0.01 0.01 72 1011.8
20150730114700 76 122 6.0 12.0 0.00 0.01 0.01 72 1011.8
20150730113700 77 127 5.0 10.0 0.00 0.01 0.01 72 1011.8
20150730113200 77 117 3.0 10.0 0.00 0.01 0.01 72 1011.8
20150730112700 77 83 6.0 13.0 0.00 0.01 0.01 71 1011.8
20150730112201 77 131 8.0 12.0 0.00 0.01 0.01 70 1011.8
20150730110700 78 133 5.0 9.0 0.00 0.01 0.01 70 1011.8
20150730110200 78 107 5.0 9.0 0.00 0.01 0.01 71 1011.8
20150730105201 77 107 3.0 8.0 0.00 0.01 0.01 71 1011.8
20150730104700 77 90 6.0 10.0 0.00 0.01 0.01 71 1011.8
20150730104200 78 87 3.0 10.0 0.00 0.01 0.01 71 1011.8
20150730102200 77 122 2.0 7.0 0.00 0.01 0.01 70 1011.8
20150730100701 77 111 4.0 7.0 0.00 0.01 0.01 71 1011.8
20150730095700 76 107 1.0 2.0 0.00 0.01 0.01 72 1011.8
20150730095200 76 107 2.0 5.0 0.00 0.01 0.01 73 1011.8
20150730094700 76 69 1.0 5.0 0.00 0.01 0.01 74 1011.8
20150730094200 76 109 3.0 9.0 0.00 0.01 0.01 75 1011.8
20150730093700 76 101 6.0 10.0 0.00 0.01 0.01 74 1011.8
20150730093203 76 88 6.0 10.0 0.00 0.01 0.01 74 1011.8
20150730092700 76 127 3.0 10.0 0.00 0.01 0.01 74 1011.8
20150730092200 76 92 6.0 12.0 0.00 0.01 0.01 74 1011.8
20150730091700 76 119 5.0 10.0 0.00 0.01 0.01 74 1011.8
20150730085200 76 92 3.0 9.0 0.00 0.02 0.01 75 1011.8
20150730084701 76 88 4.0 8.0 0.00 0.02 0.01 76 1011.8
20150730084201 75 97 6.0 10.0 0.00 0.02 0.01 76 1011.8
20150730083700 75 94 7.0 12.0 0.00 0.02 0.01 76 1011.8
20150730082201 76 99 3.0 10.0 0.00 0.02 0.01 76 1011.8
20150730081701 76 59 6.0 10.0 0.00 0.02 0.01 76 1011.8
20150730080700 76 101 7.0 12.0 0.00 0.02 0.01 77 1011.8
20150730080201 76 95 9.0 14.0 0.00 0.02 0.01 77 1011.8
20150730075700 76 69 5.0 10.0 0.00 0.02 0.01 78 1011.8
20150730074701 76 72 5.0 9.0 0.00 0.02 0.01 79 1011.8
20150730074200 75 76 2.0 7.0 0.01 0.02 0.01 79 1011.8
20150730073200 75 67 4.0 10.0 0.01 0.02 0.01 80 1011.8
20150730072700 75 89 7.0 10.0 0.01 0.02 0.01 80 1011.8
20150730071700 75 76 3.0 9.0 0.01 0.02 0.01 80 1011.8
20150730071200 75 66 7.0 12.0 0.01 0.02 0.01 80 1011.8
20150730070700 75 36 3.0 12.0 0.01 0.02 0.01 80 1011.8
20150730065200 75 70 3.0 8.0 0.01 0.02 0.01 78 1011.8
20150730063700 75 38 5.0 9.0 0.00 0.01 0.00 78 1011.8
20150730063200 75 61 2.0 8.0 0.00 0.01 0.00 78 1011.8
20150730062700 75 75 3.0 8.0 0.00 0.01 0.00 79 1011.8
20150730061700 75 79 2.0 8.0 0.00 0.01 0.00 79 1011.8
20150730061202 75 54 5.0 9.0 0.00 0.01 0.00 79 1011.8
20150730054700 75 87 5.0 8.0 0.00 0.01 0.00 78 1011.8
20150730052700 75 68 1.0 5.0 0.00 0.01 0.00 79 1011.8
20150730051200 75 51 2.0 9.0 0.00 0.01 0.00 78 1011.8
20150730044700 74 59 2.0 5.0 0.00 0.01 0.00 81 1011.8
20150730043700 75 92 1.0 3.0 0.00 0.01 0.00 81 1011.8
20150730043200 75 92 1.0 6.0 0.00 0.01 0.00 81 1011.8
20150730042659 74 103 2.0 3.0 0.00 0.01 0.00 81 1011.8
20150730042200 74 105 0.0 1.0 0.00 0.01 0.00 81 1011.8
20150730041700 74 105 0.0 0.0 0.00 0.01 0.00 80 1011.8
20150730041200 74 105 0.0 1.0 0.00 0.01 0.00 80 1011.8
20150730040700 74 105 0.0 1.0 0.00 0.01 0.00 80 1011.8
20150730040201 74 105 0.0 0.0 0.00 0.01 0.00 79 1011.8
20150730035700 74 105 0.0 0.0 0.00 0.01 0.00 80 1011.8
20150730034700 74 105 0.0 0.0 0.00 0.01 0.00 80 1011.8
20150730033700 75 105 0.0 0.0 0.00 0.01 0.00 79 1011.8
20150730033159 75 105 0.0 2.0 0.00 0.01 0.00 79 1011.8
20150730032700 75 105 0.0 0.0 0.00 0.01 0.00 79 1011.8
20150730032200 75 105 0.0 0.0 0.00 0.01 0.00 78 1011.8
20150730031200 75 105 0.0 0.0 0.00 0.01 0.00 78 1011.8
20150730030700 75 105 0.0 1.0 0.00 0.01 0.00 78 1011.8